Location: *
(48.4333°N, 5.0333°W)
Time: 07:07:45
(UTC+00:00)

SJ-6B - Pass Details

Date: 24 June 2021
Orbit: 508 x 581 km, 97.6° (Epoch: 27 July)

Event Time Altitude Azimuth Distance (km) Brightness Sun altitude
Rises 20:59:13 0° 199° (SSW) 2,766 6.1 -5.0°
Reaches altitude 10° 21:01:46 10° 215° (SW) 1,863 5.4 -5.3°
Maximum altitude 21:04:55 22° 267° (W) 1,262 5.2 -5.7°
Drops below altitude 10° 21:08:03 10° 318° (NW) 1,844 7.4 -6.0°
Sets 21:10:34 0° 335° (NNW) 2,730 8.1 -6.3°
